CSN305 ZGGG-NZAA

Flight info

Callsign CSN305
Flight time N/A
Altitude 250
Route VIBOS R473 SIERA MULET SKATE V642 NOMAN A461 AVMUP W16 MIA B462 MASBA/N0496F370 B462 BIK G459 AGIGU/N0487F390 G459 WP B473 CS Y177 AKROM Z25 ALBUX W112 OVRON A346 TEKEP/N0479F410 A346 SALAG BASIV9B
Aircraft A359/H-SDE1E2E3FGHIJ3J4J5M1RWXY/LB2

Departure

Time N/A
Airport Guangzhou Baiyun International Airport (ZGGG)

Arrival

Time 2026-05-07 02:54
Airport Auckland International Airport (NZAA)
Time Latitude Longitude Altitude Speed Heading
2026-05-07 02:10 -34.12501 170.09604 39135 ft 530 kts 122°
2026-05-07 02:11 -34.16100 170.17369 39138 ft 530 kts 122°
2026-05-07 02:11 -34.19688 170.25126 39138 ft 528 kts 122°
2026-05-07 02:12 -34.22899 170.32084 39143 ft 527 kts 122°
2026-05-07 02:12 -34.25625 170.37999 39141 ft 527 kts 122°
2026-05-07 02:13 -34.29188 170.45748 39143 ft 528 kts 122°
2026-05-07 02:13 -34.32748 170.53507 39149 ft 528 kts 122°
2026-05-07 02:14 -34.36276 170.61215 39152 ft 526 kts 122°
2026-05-07 02:14 -34.39815 170.68963 39153 ft 526 kts 121°
2026-05-07 02:15 -34.43347 170.76713 39151 ft 526 kts 121°
2026-05-07 02:15 -34.46875 170.84469 39152 ft 526 kts 121°
2026-05-07 02:16 -34.50397 170.92231 39150 ft 525 kts 121°
2026-05-07 02:16 -34.53905 170.99980 39157 ft 523 kts 121°
2026-05-07 02:17 -34.57397 171.07711 39162 ft 522 kts 121°
2026-05-07 02:17 -34.60888 171.15454 39162 ft 523 kts 121°
2026-05-07 02:18 -34.64371 171.23199 39165 ft 523 kts 121°
2026-05-07 02:18 -34.67846 171.30945 39160 ft 522 kts 121°
2026-05-07 02:19 -34.71306 171.38674 39168 ft 519 kts 121°
2026-05-07 02:19 -34.74750 171.46384 39168 ft 519 kts 121°
2026-05-07 02:20 -34.78191 171.54104 39173 ft 519 kts 121°
2026-05-07 02:20 -34.81626 171.61829 39173 ft 519 kts 121°
2026-05-07 02:21 -34.85359 171.69303 39181 ft 512 kts 134°
2026-05-07 02:21 -34.90186 171.75547 39178 ft 509 kts 137°
2026-05-07 02:22 -34.95114 171.81735 39178 ft 509 kts 137°
2026-05-07 02:22 -35.00034 171.87950 39181 ft 509 kts 137°
2026-05-07 02:23 -35.04948 171.94180 39179 ft 510 kts 137°
2026-05-07 02:23 -35.09859 172.00420 39181 ft 510 kts 137°
2026-05-07 02:24 -35.14766 172.06667 39178 ft 508 kts 137°
2026-05-07 02:24 -35.19655 172.12905 39184 ft 507 kts 137°
2026-05-07 02:25 -35.23703 172.18076 39184 ft 507 kts 137°
2026-05-07 02:25 -35.28573 172.24309 39185 ft 507 kts 136°
2026-05-07 02:26 -35.34240 172.31578 39189 ft 508 kts 136°
2026-05-07 02:26 -35.38321 172.36822 39189 ft 508 kts 136°
2026-05-07 02:27 -35.43163 172.43054 39183 ft 507 kts 136°
2026-05-07 02:27 -35.48017 172.49315 39189 ft 506 kts 136°
2026-05-07 02:28 -35.52859 172.55570 39205 ft 505 kts 136°
2026-05-07 02:28 -35.57703 172.61839 38912 ft 506 kts 136°
2026-05-07 02:29 -35.60125 172.64978 38421 ft 506 kts 136°
2026-05-07 02:29 -35.62553 172.68127 37876 ft 509 kts 136°
2026-05-07 02:29 -35.64995 172.71298 37329 ft 512 kts 136°
2026-05-07 02:29 -35.67446 172.74483 36805 ft 513 kts 135°
2026-05-07 02:30 -35.69898 172.77674 36296 ft 514 kts 135°
2026-05-07 02:30 -35.72353 172.80872 35797 ft 514 kts 135°
2026-05-07 02:30 -35.74807 172.84071 35304 ft 512 kts 135°
2026-05-07 02:30 -35.77242 172.87250 34816 ft 509 kts 135°
2026-05-07 02:31 -35.79659 172.90407 34369 ft 505 kts 134°
2026-05-07 02:31 -35.82055 172.93540 33842 ft 500 kts 134°
2026-05-07 02:31 -35.84433 172.96652 33319 ft 496 kts 134°
2026-05-07 02:31 -35.86783 172.99731 32802 ft 492 kts 134°
2026-05-07 02:32 -35.89120 173.02796 32296 ft 488 kts 134°
2026-05-07 02:32 -35.91434 173.05831 31799 ft 484 kts 134°
2026-05-07 02:32 -35.93728 173.08845 31312 ft 480 kts 134°
2026-05-07 02:32 -35.96002 173.11835 30828 ft 476 kts 134°
2026-05-07 02:33 -35.98261 173.14807 30345 ft 473 kts 134°
2026-05-07 02:33 -36.00472 173.17719 29809 ft 469 kts 134°
2026-05-07 02:33 -36.02696 173.20651 29271 ft 465 kts 134°
2026-05-07 02:33 -36.04896 173.23554 28737 ft 461 kts 134°
2026-05-07 02:34 -36.07081 173.26439 28226 ft 458 kts 134°
2026-05-07 02:34 -36.09246 173.29301 27714 ft 454 kts 134°
2026-05-07 02:34 -36.11393 173.32140 27211 ft 451 kts 133°
2026-05-07 02:34 -36.13525 173.34964 26701 ft 447 kts 133°
2026-05-07 02:35 -36.15641 173.37767 26228 ft 444 kts 133°
2026-05-07 02:35 -36.17739 173.40549 25756 ft 440 kts 133°
2026-05-07 02:35 -36.19818 173.43309 25270 ft 437 kts 133°
2026-05-07 02:35 -36.21887 173.46057 24817 ft 434 kts 133°
2026-05-07 02:36 -36.23934 173.48779 24361 ft 431 kts 133°
2026-05-07 02:36 -36.25968 173.51485 23914 ft 428 kts 133°
2026-05-07 02:36 -36.27988 173.54176 23400 ft 424 kts 133°
2026-05-07 02:36 -36.29992 173.56848 22869 ft 421 kts 133°
2026-05-07 02:37 -36.31977 173.59496 22347 ft 417 kts 134°
2026-05-07 02:37 -36.33944 173.62122 21840 ft 414 kts 134°
2026-05-07 02:37 -36.35893 173.64726 21362 ft 410 kts 134°
2026-05-07 02:37 -36.37801 173.67277 20858 ft 407 kts 134°
2026-05-07 02:38 -36.39534 173.69597 20422 ft 404 kts 134°
2026-05-07 02:38 -36.41469 173.72095 19948 ft 400 kts 137°
2026-05-07 02:38 -36.43463 173.74486 19476 ft 397 kts 137°
2026-05-07 02:38 -36.45445 173.76849 19024 ft 394 kts 137°
2026-05-07 02:39 -36.47409 173.79207 18553 ft 391 kts 137°
2026-05-07 02:39 -36.49351 173.81551 18040 ft 388 kts 137°
2026-05-07 02:39 -36.51278 173.83886 17526 ft 385 kts 137°
2026-05-07 02:39 -36.53186 173.86204 17018 ft 382 kts 137°
2026-05-07 02:40 -36.55080 173.88509 16519 ft 379 kts 137°
2026-05-07 02:40 -36.56955 173.90793 16016 ft 376 kts 137°
2026-05-07 02:40 -36.58816 173.93062 15543 ft 373 kts 136°
2026-05-07 02:40 -36.60660 173.95314 15062 ft 370 kts 136°
2026-05-07 02:41 -36.62489 173.97557 14599 ft 368 kts 136°
2026-05-07 02:41 -36.64301 173.99773 14132 ft 359 kts 136°
2026-05-07 02:41 -36.66041 174.01900 13633 ft 342 kts 136°
2026-05-07 02:41 -36.67706 174.03937 13146 ft 329 kts 136°
2026-05-07 02:42 -36.69315 174.05908 12606 ft 322 kts 135°
2026-05-07 02:42 -36.70921 174.07876 12109 ft 325 kts 135°
2026-05-07 02:42 -36.72520 174.09836 11576 ft 319 kts 135°
2026-05-07 02:42 -36.74089 174.11762 11079 ft 316 kts 135°
2026-05-07 02:43 -36.75653 174.13684 10620 ft 315 kts 135°
2026-05-07 02:43 -36.77218 174.15607 10256 ft 316 kts 135°
2026-05-07 02:43 -36.78775 174.17522 9855 ft 313 kts 134°
2026-05-07 02:43 -36.80317 174.19420 9443 ft 310 kts 134°
2026-05-07 02:44 -36.81841 174.21297 9036 ft 307 kts 134°
2026-05-07 02:44 -36.83354 174.23162 8638 ft 304 kts 134°
2026-05-07 02:44 -36.84831 174.24984 8250 ft 301 kts 134°
2026-05-07 02:44 -36.86312 174.26820 7853 ft 299 kts 134°
2026-05-07 02:45 -36.87786 174.28637 7463 ft 296 kts 134°
2026-05-07 02:45 -36.89247 174.30438 7075 ft 294 kts 134°
2026-05-07 02:45 -36.90715 174.32249 6692 ft 292 kts 134°
2026-05-07 02:45 -36.92134 174.34002 6302 ft 289 kts 134°
2026-05-07 02:46 -36.93555 174.35757 5994 ft 284 kts 133°
2026-05-07 02:46 -36.94949 174.37482 5697 ft 280 kts 133°
2026-05-07 02:46 -36.96331 174.39194 5404 ft 278 kts 133°
2026-05-07 02:46 -36.97702 174.40894 5165 ft 278 kts 133°
2026-05-07 02:47 -36.99070 174.42590 4906 ft 275 kts 133°
2026-05-07 02:47 -37.00415 174.44256 4646 ft 268 kts 133°
2026-05-07 02:47 -37.01723 174.45878 4413 ft 262 kts 132°
2026-05-07 02:47 -37.03002 174.47468 4167 ft 256 kts 132°
2026-05-07 02:48 -37.04252 174.49023 3922 ft 251 kts 132°
2026-05-07 02:48 -37.05484 174.50552 3684 ft 247 kts 131°
2026-05-07 02:48 -37.06685 174.52067 3440 ft 243 kts 129°
2026-05-07 02:48 -37.07519 174.53807 3173 ft 223 kts 99°
2026-05-07 02:49 -37.07525 174.55558 3020 ft 182 kts 69°
2026-05-07 02:49 -37.07171 174.57012 3027 ft 169 kts 64°
2026-05-07 02:49 -37.06777 174.58392 2995 ft 168 kts 64°
2026-05-07 02:49 -37.06400 174.59755 2898 ft 168 kts 64°
2026-05-07 02:50 -37.06030 174.61105 2690 ft 158 kts 63°
2026-05-07 02:50 -37.05677 174.62387 2474 ft 154 kts 63°
2026-05-07 02:50 -37.05321 174.63661 2267 ft 155 kts 65°
2026-05-07 02:50 -37.04975 174.64921 2059 ft 151 kts 65°
2026-05-07 02:51 -37.04644 174.66132 1869 ft 143 kts 65°
2026-05-07 02:51 -37.04334 174.67262 1641 ft 132 kts 63°
2026-05-07 02:51 -37.04038 174.68328 1470 ft 129 kts 63°
2026-05-07 02:51 -37.03745 174.69391 1304 ft 128 kts 63°
2026-05-07 02:52 -37.03456 174.70443 1139 ft 127 kts 62°
2026-05-07 02:52 -37.03165 174.71488 977 ft 127 kts 65°
2026-05-07 02:52 -37.02880 174.72533 802 ft 126 kts 65°
2026-05-07 02:52 -37.02597 174.73557 629 ft 124 kts 66°
2026-05-07 02:53 -37.02307 174.74591 458 ft 128 kts 68°
2026-05-07 02:53 -37.02042 174.75638 302 ft 123 kts 66°
2026-05-07 02:53 -37.01757 174.76613 148 ft 121 kts 66°
2026-05-07 02:53 -37.01477 174.77624 38 ft 121 kts 67°
2026-05-07 02:54 -37.01244 174.78478 32 ft 86 kts 72°
2026-05-07 02:54 -37.01116 174.78881 32 ft 17 kts 54°
2026-05-07 02:54 -37.01041 174.78990 32 ft 16 kts 43°
2026-05-07 02:54 -37.00965 174.79071 32 ft 10 kts 40°
2026-05-07 02:55 -37.00921 174.79085 32 ft 5 kts 329°
2026-05-07 02:55 -37.00905 174.79040 32 ft 8 kts 285°
2026-05-07 02:55 -37.00918 174.78966 32 ft 10 kts 251°
2026-05-07 02:55 -37.00945 174.78869 32 ft 13 kts 251°
2026-05-07 02:56 -37.00978 174.78747 32 ft 17 kts 251°
2026-05-07 02:56 -37.01020 174.78597 32 ft 20 kts 251°
2026-05-07 02:56 -37.01058 174.78458 32 ft 16 kts 250°
2026-05-07 02:56 -37.01070 174.78416 32 ft 3 kts 251°
2026-05-07 02:57 -37.01075 174.78373 32 ft 7 kts 267°
2026-05-07 02:57 -37.01059 174.78308 32 ft 9 kts 305°
2026-05-07 02:57 -37.01010 174.78268 32 ft 8 kts 342°
2026-05-07 02:57 -37.00961 174.78216 32 ft 11 kts 309°
2026-05-07 02:58 -37.00919 174.78127 32 ft 14 kts 300°
2026-05-07 02:58 -37.00881 174.78054 31 ft 8 kts 314°
2026-05-07 02:58 -37.00824 174.78023 32 ft 10 kts 341°
2026-05-07 02:58 -37.00748 174.78011 32 ft 10 kts 11°
2026-05-07 02:59 -37.00686 174.78038 32 ft 9 kts 16°
2026-05-07 02:59 -37.00634 174.78035 32 ft 7 kts 339°
2026-05-07 02:59 -37.00599 174.77985 32 ft 9 kts 295°
2026-05-07 02:59 -37.00603 174.77900 32 ft 9 kts 249°
2026-05-07 03:00 -37.00617 174.77854 32 ft 0 kts 250°
2026-05-07 03:00 -37.00618 174.77851 32 ft 1 kts 250°
2026-05-07 03:00 -37.00619 174.77840 32 ft 0 kts 265°
2026-05-07 03:00 -37.00615 174.77833 32 ft 1 kts 298°
2026-05-07 03:01 -37.00612 174.77831 32 ft 0 kts 317°
2026-05-07 03:01 -37.00598 174.77824 30 ft 5 kts 337°
2026-05-07 03:01 -37.00555 174.77805 32 ft 8 kts 341°
2026-05-07 03:01 -37.00533 174.77796 32 ft 0 kts 341°
2026-05-07 03:02 -37.00519 174.77790 32 ft 0 kts 341°
2026-05-07 03:02 -37.00516 174.77789 32 ft 0 kts 341°